Location: Cactus School
(34.5700°N, 118.0931°W)
Time: 09:39:28
(UTC-07:00)

S-56A Canister/Altair - Pass Details

Date: 18 April 2024
Orbit: 638 x 2488 km, 38.9° (Epoch: 29 May)

Event Time Altitude Azimuth Distance (km) Brightness Sun altitude
Rises 22:54:44 0° 290° (WNW) 4,260 12.0 -36.4°
Reaches altitude 10° 22:57:14 10° 289° (WNW) 3,501 11.4 -36.7°
Enters shadow 23:06:18 74° 215° (SW) 1,913 9.2 -37.7°
Maximum altitude 23:06:31 74° 206° (SSW) 1,922 - -37.8°
Drops below altitude 10° 23:20:06 10° 125° (SE) 4,938 - -39.2°
Sets 23:24:19 0° 124° (ESE) 6,069 - -39.6°
